• Join FlightAware (Why Join?)
  • Login
  • US Flag 
07:41AM EDT


 

Airport Tracker/Info


-or-


 

Live Flight TrackerFlight Track Log ✈ FLG4262 ✈ 11-Nov-2013 ✈ KDTW - KBGM

Flight Track Log - Related Links

Times and Time Zones

All times are in EST time to prevent confusion due to time zone crossing. See the FLG4262 flight status page for this flight to view local times or setup timezone preferences in your user account.

Time Position Orientation Groundspeed Altitude Reporting Facility
EST Latitude Longitude Course Direction KTS MPH feet Rate Location/Type
03:49PM 42.2317 -83.3342 39° Northeast 152 175 1,400  Level Cleveland Center
03:49PM 42.2456 -83.3192 39° Northeast 189 217 2,000 1,860 Climbing Cleveland Center
03:50PM 42.2936 -83.2667 39° Northeast 258 297 4,100 2,100 Climbing Cleveland Center
03:51PM 42.3128 -83.2453 40° Northeast 245 282 5,200 2,880 Climbing Cleveland Center
03:51PM 42.3392 -83.1911 57° Northeast 300 345 7,000 2,580 Climbing Cleveland Center
03:52PM 42.3414 -83.1556 85° East 287 330 7,900 2,520 Climbing Cleveland Center
03:52PM 42.3458 -83.0761 86° East 326 375 9,600 1,980 Climbing Cleveland Center
03:53PM 42.3469 -83.0083 89° East 320 368 10,000 360 Climbing Cleveland Center
03:53PM 42.3497 -82.9383 87° East 381 438 10,000 60 Level Cleveland Center
03:54PM 42.3522 -82.8656 87° East 371 427 10,100 1,260 Climbing Cleveland Center
03:54PM 42.3561 -82.7925 86° East 371 427 11,300 1,800 Climbing Cleveland Center
03:55PM 42.3581 -82.7239 88° East 376 433 12,000 1,320 Climbing Cleveland Center
03:56PM 42.3628 -82.5672 88° East 411 473 13,500 1,620 Climbing Cleveland Center
03:57PM 42.3644 -82.3853 89° East 438 504 15,400 1,920 Climbing Cleveland Center
03:58PM 42.3578 -82.2000 93° East 447 514 17,500 1,740 Climbing Cleveland Center
03:59PM 42.3511 -82.0444 93° East 450 518 19,100 1,320 Climbing Cleveland Center
04:00PM 42.3422 -81.8719 94° East 454 522 20,300 1,140 Climbing Cleveland Center
04:01PM 42.3358 -81.6928 93° East 467 537 21,500 1,200 Climbing Cleveland Center
04:02PM 42.3250 -81.4819 94° East 476 548 22,900 720 Climbing Cleveland Center
04:03PM 42.3164 -81.2989 94° East 481 554 23,000  Climbing Cleveland Center
04:04PM 42.3069 -81.1064 94° East 502 578 23,000  Level Cleveland Center
04:05PM 42.2964 -80.9103 94° East 512 589 23,000  Level Cleveland Center
04:06PM 42.2864 -80.7158 94° East 514 592 23,000  Level Cleveland Center
04:07PM 42.2764 -80.5275 94° East 502 578 23,000  Level Cleveland Center
04:08PM 42.2656 -80.3364 94° East 504 580 23,000  Level Cleveland Center
04:09PM 42.2544 -80.1444 94° East 508 585 23,000  Level Cleveland Center
04:11PM 42.2408 -79.9283 95° East 505 581 23,000  Level Cleveland Center
04:12PM 42.2289 -79.7400 95° East 506 582 23,000  Level Cleveland Center
04:13PM 42.2169 -79.5531 95° East 503 579 23,000  Level Cleveland Center
04:14PM 42.2044 -79.3647 95° East 507 583 23,000  Level Cleveland Center
04:15PM 42.1894 -79.1386 95° East 506 582 23,000  Level Cleveland Center
04:16PM 42.1919 -78.9483 89° East 509 586 23,000  Level Cleveland Center
04:17PM 42.1956 -78.7711 88° East 506 582 23,000  Level Cleveland Center
04:18PM 42.1978 -78.5825 89° East 505 581 23,000  Level Cleveland Center
04:19PM 42.2014 -78.3564 89° East 505 581 23,000  Level Cleveland Center
04:20PM 42.2036 -78.1689 89° East 504 580 23,000  Level Cleveland Center
04:21PM 42.2058 -77.9828 89° East 503 579 23,000  Level Cleveland Center
04:22PM 42.2072 -77.7961 89° East 504 580 23,000 -540 Level Cleveland Center
04:23PM 42.2086 -77.6094 89° East 504 580 21,900 -1,620 Descending Cleveland Center
04:24PM 42.2094 -77.3864 90° East 503 579 19,700 -1,980 Descending Cleveland Center
04:25PM 42.2103 -77.2106 90° East 480 552 17,900 -2,040 Descending Cleveland Center
04:26PM 42.2117 -77.0383 89° East 467 537 15,600 -2,400 Descending Cleveland Center
04:27PM 42.2119 -76.8761 90° East 442 509 13,000 -2,400 Descending Cleveland Center
04:28PM 42.2175 -76.7244 87° East 414 476 10,700 -1,980 Descending Cleveland Center
04:29PM 42.2408 -76.5664 79° East 359 413 9,000 -1,680 Descending Cleveland Center
04:30PM 42.2553 -76.4458 81° East 336 387 7,300 -1,620 Descending Cleveland Center
04:31PM 42.2619 -76.3319 85° East 327 376 5,700 -1,560 Descending Cleveland Center
04:32PM 42.2658 -76.2233 87° East 303 349 4,100 -960 Descending Cleveland Center
04:33PM 42.2708 -76.1042 87° East 281 323 3,700 -240 Descending Cleveland Center
04:34PM 42.2758 -76.0364 84° East 256 295 3,600 -720 Descending Cleveland Center
04:35PM 42.2314 -75.9856 140° Southeast 182 209 2,200 -1,260 Descending New York Center